Location: ?????
(31.8092°N, 35.2590°E)
Time: 19:37:03
(UTC+00:00)

Terra - Pass Details

Date: 20 June 2021
Orbit: 701 x 703 km, 98.2° (Epoch: 23 July)

Event Time Altitude Azimuth Distance (km) Brightness Sun altitude
Exits shadow 19:02:11 28° 69° (ENE) 1,292 3.0 -23.0°
Drops below altitude 10° 19:06:08 10° 13° (NNE) 2,173 4.8 -23.5°
Sets 19:08:38 0° 2° (N) 3,095 5.9 -23.9°
